Le nostre stazioni meteo in Italia

Pubblicità
Il mio iltempo24.it
Firenze, Italia (16171): Temperatura & dewpoint: 16.01.2020 01:00:00 - 22.01.2020 01:00:00 (CET)Firenze, Italia (16171): reduced air pressure: 16.01.2020 01:00:00 - 22.01.2020 01:00:00 (CET)
Data & Tempo tt [°C] td [°C] ppp [hPa]
22.01.2020 01:00:00 - - -
22.01.2020 00:00:00 6,5 1,6 1037,9
21.01.2020 23:00:00 6,7 1,1 1037,8
21.01.2020 22:00:00 7,1 1,7 1038,0
21.01.2020 21:00:00 6,8 1,8 1038,2
21.01.2020 20:00:00 7,1 1,5 1038,2
21.01.2020 19:00:00 7,6 1,8 1038,1
21.01.2020 18:00:00 8,4 1,9 1038,1
21.01.2020 17:00:00 9,2 2,2 1038,2
21.01.2020 16:00:00 9,6 2,6 1038,6
21.01.2020 15:00:00 9,9 2,4 1039,0
21.01.2020 14:00:00 10,0 2,7 1039,2
21.01.2020 13:00:00 9,7 3,1 1040,3
21.01.2020 12:00:00 9,1 2,3 1041,0
21.01.2020 11:00:00 8,2 1,9 1041,6
21.01.2020 10:00:00 7,1 1,5 1041,5
21.01.2020 09:00:00 6,9 1,5 1041,2
21.01.2020 08:00:00 6,6 1,7 1041,0
21.01.2020 07:00:00 6,6 1,9 1041,1
21.01.2020 06:00:00 6,4 1,9 1041,2
21.01.2020 05:00:00 6,4 1,7 1041,0
21.01.2020 04:00:00 6,9 1,9 1041,7
21.01.2020 03:00:00 7,3 2,1 1041,8
21.01.2020 02:00:00 7,6 2,4 1041,7
21.01.2020 01:00:00 7,9 2,5 1041,7
21.01.2020 00:00:00 7,9 2,3 1042,0
20.01.2020 23:00:00 8,1 1,8 1040,9
20.01.2020 22:00:00 8,0 2,4 1041,3
20.01.2020 21:00:00 7,8 2,6 1040,9
20.01.2020 20:00:00 8,1 2,5 1040,7
20.01.2020 19:00:00 8,2 2,4 1040,1
20.01.2020 18:00:00 8,4 2,1 1039,7
20.01.2020 17:00:00 8,7 2,0 1039,0
20.01.2020 16:00:00 9,1 1,4 1039,0
20.01.2020 15:00:00 9,5 1,6 1038,7
20.01.2020 14:00:00 9,6 1,9 1039,0
20.01.2020 13:00:00 9,4 1,2 1038,8
20.01.2020 12:00:00 9,6 1,9 1038,8
20.01.2020 11:00:00 9,5 2,3 1039,0
20.01.2020 10:00:00 8,8 1,8 1038,3
20.01.2020 09:00:00 8,1 1,4 1037,4
20.01.2020 08:00:00 7,9 1,2 1036,5
20.01.2020 07:00:00 8,2 1,5 1035,8
20.01.2020 06:00:00 8,1 1,2 1034,9
20.01.2020 05:00:00 8,5 1,8 1034,3
20.01.2020 04:00:00 8,4 2,1 1034,1
20.01.2020 03:00:00 8,6 2,3 1034,0
20.01.2020 02:00:00 8,8 2,3 1033,5
20.01.2020 01:00:00 9,0 2,7 1033,0
20.01.2020 00:00:00 9,1 2,3 1032,5
19.01.2020 23:00:00 9,3 1,8 1032,0
19.01.2020 22:00:00 9,4 2,4 1031,1
19.01.2020 21:00:00 9,5 3,0 1030,4
19.01.2020 20:00:00 9,5 2,7 1030,2
19.01.2020 19:00:00 9,3 3,0 1029,3
19.01.2020 18:00:00 9,5 2,7 1028,5
19.01.2020 17:00:00 9,8 3,9 1027,6
19.01.2020 16:00:00 10,1 5,0 1026,8
19.01.2020 15:00:00 10,7 5,4 1026,0
19.01.2020 14:00:00 11,0 5,7 1025,5
19.01.2020 13:00:00 11,2 5,2 1025,5
19.01.2020 12:00:00 11,1 4,7 1025,7
19.01.2020 11:00:00 10,3 4,6 1025,6
19.01.2020 10:00:00 9,3 5,0 1025,2
19.01.2020 09:00:00 8,5 5,2 1025,0
19.01.2020 08:00:00 8,3 5,9 1024,3
19.01.2020 07:00:00 7,5 5,3 1023,8
19.01.2020 06:00:00 8,5 6,1 1023,4
19.01.2020 05:00:00 8,1 5,9 1023,5
19.01.2020 04:00:00 7,5 6,3 1023,4
19.01.2020 03:00:00 6,4 5,5 1024,1
19.01.2020 02:00:00 7,2 5,8 1023,7
19.01.2020 01:00:00 8,0 6,6 1023,5
19.01.2020 00:00:00 8,0 6,4 1023,5
18.01.2020 23:00:00 7,9 6,5 1023,5
18.01.2020 22:00:00 7,8 6,4 1023,2
18.01.2020 21:00:00 6,9 5,8 1022,9
18.01.2020 20:00:00 7,7 6,0 1022,7
18.01.2020 19:00:00 8,3 6,2 1022,4
18.01.2020 18:00:00 8,2 7,0 1022,0
18.01.2020 17:00:00 9,1 8,0 1021,7
18.01.2020 16:00:00 8,9 8,0 1021,4
18.01.2020 15:00:00 8,3 7,7 1021,4
18.01.2020 14:00:00 8,4 7,9 1021,4
18.01.2020 13:00:00 8,1 8,1 1021,9
18.01.2020 12:00:00 8,1 8,1 1022,1
18.01.2020 11:00:00 8,2 8,2 1022,1
18.01.2020 10:00:00 7,8 7,8 1021,6
18.01.2020 09:00:00 7,0 7,0 1021,7
18.01.2020 08:00:00 6,9 6,9 1021,3
18.01.2020 07:00:00 7,5 7,5 1021,4
18.01.2020 06:00:00 7,9 7,9 1021,3
18.01.2020 05:00:00 8,4 8,4 1021,7
18.01.2020 04:00:00 8,2 8,2 1022,6
18.01.2020 03:00:00 7,9 7,9 1021,9
18.01.2020 02:00:00 7,8 7,8 1022,5
18.01.2020 01:00:00 7,8 7,8 1023,1
18.01.2020 00:00:00 8,1 8,1 1023,6
17.01.2020 23:00:00 8,3 8,1 1024,3
17.01.2020 22:00:00 8,4 8,2 1024,9
17.01.2020 21:00:00 8,4 7,9 1025,5
17.01.2020 20:00:00 8,7 8,1 1025,7
17.01.2020 19:00:00 8,7 7,9 1025,9
17.01.2020 18:00:00 8,9 8,1 1025,8
17.01.2020 17:00:00 9,4 8,6 1025,9
17.01.2020 16:00:00 9,6 8,7 1025,8
17.01.2020 15:00:00 9,2 8,3 1026,1
17.01.2020 14:00:00 9,2 8,4 1026,4
17.01.2020 13:00:00 7,9 7,3 1027,3
17.01.2020 12:00:00 6,7 6,4 1028,2
17.01.2020 11:00:00 5,4 5,3 1028,9
17.01.2020 10:00:00 4,1 4,0 1028,7
17.01.2020 09:00:00 2,6 2,0 1028,5
17.01.2020 08:00:00 2,6 2,0 1028,5
17.01.2020 07:00:00 3,1 2,5 1028,3
17.01.2020 06:00:00 3,5 2,9 1028,1
17.01.2020 05:00:00 4,1 3,5 1028,3
17.01.2020 04:00:00 4,3 3,7 1028,6
17.01.2020 03:00:00 5,0 4,6 1029,1
17.01.2020 02:00:00 5,0 4,7 1029,1
17.01.2020 01:00:00 4,6 4,0 1029,5
17.01.2020 00:00:00 4,3 3,7 1029,8
16.01.2020 23:00:00 5,4 4,8 1029,8
16.01.2020 22:00:00 6,1 5,5 1030,0
16.01.2020 21:00:00 6,3 5,5 1030,3
16.01.2020 20:00:00 6,6 5,5 1030,3
16.01.2020 19:00:00 7,7 6,5 1030,0
16.01.2020 18:00:00 9,5 8,4 1029,7
16.01.2020 17:00:00 11,1 10,0 1029,6
16.01.2020 16:00:00 11,0 9,6 1029,4
16.01.2020 15:00:00 10,9 9,6 1029,8
16.01.2020 14:00:00 10,6 9,7 1030,3
16.01.2020 13:00:00 9,5 9,0 1031,2
16.01.2020 12:00:00 8,4 8,2 1032,1
16.01.2020 11:00:00 7,0 7,0 1032,8
16.01.2020 10:00:00 5,7 5,7 1032,7
16.01.2020 09:00:00 4,7 4,4 1032,5
16.01.2020 08:00:00 3,3 2,7 1032,0
16.01.2020 07:00:00 3,7 3,1 1031,7
16.01.2020 06:00:00 4,6 4,0 1031,1
16.01.2020 05:00:00 6,0 5,7 1030,8
16.01.2020 04:00:00 5,9 5,5 1030,8
16.01.2020 03:00:00 5,7 5,1 1030,8
16.01.2020 02:00:00 6,3 5,7 1030,7
16.01.2020 01:00:00 7,3 6,8 1030,6

tt = Temperatura
td = dewpoint
ppp = reduced air pressure

Stazioni seguenti

WeatherPro
AMSI
MeteoEarth